User: anonymous   Login
Location: Unspecified
(0.0000°N, 0.0000°E)
Time: 20:27:26
(UTC+00:00)
Language:

NOSS 2-3 (E) - Orbit

View from above orbital plane
View from above orbital plane
View from above satellite
View from above satellite

Ground track
Ground track

The orbit data is extracted from the following two-line orbital elements,

1 23936U 96029E   18098.79932920 0.00000050  00000-0  27333-4 0    06
2 23936  63.3703  13.6829 0631991  14.8159 345.1972 13.40891134    08
Epoch (UTC): 08 April 2018 19:11:02
Eccentricity: 0.0631991
inclination: 63.3703°
perigee height: 633 km
apogee height: 1579 km
right ascension of ascending node: 13.6829°
argument of perigee: 14.8159°
revolutions per day: 13.40891134
mean anomaly at epoch: 345.1972°
orbit number at epoch: 0

The dashed part of the orbit path shows where the satellite is in the earth's shadow,  

DLR